Year,Month,Day,Hour,Minute,Value (Times are PST for windgust in km/hr)
2006,09,08,00,00,0.00
2006,09,08,00,01,0.00
2006,09,08,00,02,0.00
2006,09,08,00,03,1.60
2006,09,08,00,04,0.00
2006,09,08,00,05,0.00
2006,09,08,00,06,0.00
2006,09,08,00,07,0.00
2006,09,08,00,08,0.00
2006,09,08,00,09,0.00
2006,09,08,00,10,0.00
2006,09,08,00,11,0.00
2006,09,08,00,12,0.00
2006,09,08,00,13,1.60
2006,09,08,00,14,1.60
2006,09,08,00,15,1.60
2006,09,08,00,16,0.00
2006,09,08,00,17,0.00
2006,09,08,00,18,1.60
2006,09,08,00,19,3.20
2006,09,08,00,20,1.60
2006,09,08,00,21,1.60
2006,09,08,00,22,0.00
2006,09,08,00,23,1.60
2006,09,08,00,24,1.60
2006,09,08,00,25,1.60
2006,09,08,00,26,0.00
2006,09,08,00,27,0.00
2006,09,08,00,28,0.00
2006,09,08,00,29,0.00
2006,09,08,00,30,3.20
2006,09,08,00,31,1.60
2006,09,08,00,32,0.00
2006,09,08,00,33,0.00
2006,09,08,00,34,0.00
2006,09,08,00,35,0.00
2006,09,08,00,36,1.60
2006,09,08,00,37,3.20
2006,09,08,00,38,1.60
2006,09,08,00,39,0.00
2006,09,08,00,40,0.00
2006,09,08,00,41,0.00
2006,09,08,00,42,0.00
2006,09,08,00,43,0.00
2006,09,08,00,44,0.00
2006,09,08,00,45,0.00
2006,09,08,00,46,0.00
2006,09,08,00,47,0.00
2006,09,08,00,48,0.00
2006,09,08,00,49,0.00
2006,09,08,00,50,0.00
2006,09,08,00,51,0.00
2006,09,08,00,52,0.00
2006,09,08,00,53,0.00
2006,09,08,00,54,0.00
2006,09,08,00,55,0.00
2006,09,08,00,56,0.00
2006,09,08,00,57,0.00
2006,09,08,00,58,0.00
2006,09,08,00,59,0.00
2006,09,08,01,00,0.00
2006,09,08,01,01,0.00
2006,09,08,01,02,0.00
2006,09,08,01,03,0.00
2006,09,08,01,04,0.00
2006,09,08,01,05,0.00
2006,09,08,01,06,0.00
2006,09,08,01,07,0.00
2006,09,08,01,08,0.00
2006,09,08,01,09,0.00
2006,09,08,01,10,0.00
2006,09,08,01,11,0.00
2006,09,08,01,12,0.00
2006,09,08,01,13,0.00
2006,09,08,01,14,0.00
2006,09,08,01,15,0.00
2006,09,08,01,16,0.00
2006,09,08,01,17,0.00
2006,09,08,01,18,0.00
2006,09,08,01,19,0.00
2006,09,08,01,20,0.00
2006,09,08,01,21,0.00
2006,09,08,01,22,0.00
2006,09,08,01,23,0.00
2006,09,08,01,24,0.00
2006,09,08,01,25,0.00
2006,09,08,01,26,0.00
2006,09,08,01,27,0.00
2006,09,08,01,28,0.00
2006,09,08,01,29,0.00
2006,09,08,01,30,0.00
2006,09,08,01,31,0.00
2006,09,08,01,32,0.00
2006,09,08,01,33,0.00
2006,09,08,01,34,0.00
2006,09,08,01,35,0.00
2006,09,08,01,36,0.00
2006,09,08,01,37,1.60
2006,09,08,01,38,3.20
2006,09,08,01,39,4.80
2006,09,08,01,40,1.60
2006,09,08,01,41,4.80
2006,09,08,01,42,1.60
2006,09,08,01,43,1.60
2006,09,08,01,44,1.60
2006,09,08,01,45,1.60
2006,09,08,01,46,1.60
2006,09,08,01,47,3.20
2006,09,08,01,48,3.20
2006,09,08,01,49,0.00
2006,09,08,01,50,1.60
2006,09,08,01,51,0.00
2006,09,08,01,52,0.00
2006,09,08,01,53,1.60
2006,09,08,01,54,3.20
2006,09,08,01,55,3.20
2006,09,08,01,56,1.60
2006,09,08,01,57,1.60
2006,09,08,01,58,0.00
2006,09,08,01,59,0.00
2006,09,08,02,00,0.00
2006,09,08,02,01,3.20
2006,09,08,02,02,1.60
2006,09,08,02,03,1.60
2006,09,08,02,04,0.00
2006,09,08,02,05,0.00
2006,09,08,02,06,1.60
2006,09,08,02,07,0.00
2006,09,08,02,08,0.00
2006,09,08,02,09,0.00
2006,09,08,02,10,0.00
2006,09,08,02,11,3.20
2006,09,08,02,12,3.20
2006,09,08,02,13,3.20
2006,09,08,02,14,1.60
2006,09,08,02,15,1.60
2006,09,08,02,16,0.00
2006,09,08,02,17,3.20
2006,09,08,02,18,1.60
2006,09,08,02,19,0.00
2006,09,08,02,20,1.60
2006,09,08,02,21,1.60
2006,09,08,02,22,1.60
2006,09,08,02,23,1.60
2006,09,08,02,24,4.80
2006,09,08,02,25,3.20
2006,09,08,02,26,3.20
2006,09,08,02,27,0.00
2006,09,08,02,28,1.60
2006,09,08,02,29,0.00
2006,09,08,02,30,0.00
2006,09,08,02,31,0.00
2006,09,08,02,32,1.60
2006,09,08,02,33,1.60
2006,09,08,02,34,1.60
2006,09,08,02,35,1.60
2006,09,08,02,36,0.00
2006,09,08,02,37,3.20
2006,09,08,02,38,4.80
2006,09,08,02,39,3.20
2006,09,08,02,40,3.20
2006,09,08,02,41,1.60
2006,09,08,02,42,1.60
2006,09,08,02,43,1.60
2006,09,08,02,44,1.60
2006,09,08,02,45,4.80
2006,09,08,02,46,3.20
2006,09,08,02,47,0.00
2006,09,08,02,48,3.20
2006,09,08,02,49,3.20
2006,09,08,02,50,1.60
2006,09,08,02,51,1.60
2006,09,08,02,52,0.00
2006,09,08,02,53,0.00
2006,09,08,02,54,0.00
2006,09,08,02,55,1.60
2006,09,08,02,56,3.20
2006,09,08,02,57,1.60
2006,09,08,02,58,3.20
2006,09,08,02,59,3.20
2006,09,08,03,00,0.00
2006,09,08,03,01,0.00
2006,09,08,03,02,3.20
2006,09,08,03,03,3.20
2006,09,08,03,04,3.20
2006,09,08,03,05,1.60
2006,09,08,03,06,1.60
2006,09,08,03,07,3.20
2006,09,08,03,08,1.60
2006,09,08,03,09,1.60
2006,09,08,03,10,0.00
2006,09,08,03,11,0.00
2006,09,08,03,12,1.60
2006,09,08,03,13,1.60
2006,09,08,03,14,1.60
2006,09,08,03,15,1.60
2006,09,08,03,16,0.00
2006,09,08,03,17,1.60
2006,09,08,03,18,0.00
2006,09,08,03,19,0.00
2006,09,08,03,20,0.00
2006,09,08,03,21,0.00
2006,09,08,03,22,0.00
2006,09,08,03,23,0.00
2006,09,08,03,24,1.60
2006,09,08,03,25,1.60
2006,09,08,03,26,1.60
2006,09,08,03,27,1.60
2006,09,08,03,28,1.60
2006,09,08,03,29,1.60
2006,09,08,03,30,1.60
2006,09,08,03,31,1.60
2006,09,08,03,32,1.60
2006,09,08,03,33,0.00
2006,09,08,03,34,3.20
2006,09,08,03,35,1.60
2006,09,08,03,36,3.20
2006,09,08,03,37,1.60
2006,09,08,03,38,1.60
2006,09,08,03,39,3.20
2006,09,08,03,40,1.60
2006,09,08,03,41,1.60
2006,09,08,03,42,1.60
2006,09,08,03,43,1.60
2006,09,08,03,44,3.20
2006,09,08,03,45,3.20
2006,09,08,03,46,3.20
2006,09,08,03,47,3.20
2006,09,08,03,48,3.20
2006,09,08,03,49,3.20
2006,09,08,03,50,4.80
2006,09,08,03,51,3.20
2006,09,08,03,52,8.10
2006,09,08,03,53,4.80
2006,09,08,03,54,4.80
2006,09,08,03,55,1.60
2006,09,08,03,56,1.60
2006,09,08,03,57,1.60
2006,09,08,03,58,1.60
2006,09,08,03,59,1.60
2006,09,08,04,00,3.20
2006,09,08,04,01,4.80
2006,09,08,04,02,3.20
2006,09,08,04,03,1.60
2006,09,08,04,04,1.60
2006,09,08,04,05,4.80
2006,09,08,04,06,0.00
2006,09,08,04,07,0.00
2006,09,08,04,08,0.00
2006,09,08,04,09,1.60
2006,09,08,04,10,3.20
2006,09,08,04,11,1.60
2006,09,08,04,12,0.00
2006,09,08,04,13,1.60
2006,09,08,04,14,1.60
2006,09,08,04,15,3.20
2006,09,08,04,16,1.60
2006,09,08,04,17,3.20
2006,09,08,04,18,3.20
2006,09,08,04,19,3.20
2006,09,08,04,20,1.60
2006,09,08,04,21,1.60
2006,09,08,04,22,3.20
2006,09,08,04,23,4.80
2006,09,08,04,24,1.60
2006,09,08,04,25,1.60
2006,09,08,04,26,1.60
2006,09,08,04,27,4.80
2006,09,08,04,28,3.20
2006,09,08,04,29,1.60
2006,09,08,04,30,3.20
2006,09,08,04,31,3.20
2006,09,08,04,32,3.20
2006,09,08,04,33,1.60
2006,09,08,04,34,1.60
2006,09,08,04,35,4.80
2006,09,08,04,36,4.80
2006,09,08,04,37,3.20
2006,09,08,04,38,4.80
2006,09,08,04,39,3.20
2006,09,08,04,40,6.40
2006,09,08,04,41,6.40
2006,09,08,04,42,4.80
2006,09,08,04,43,3.20
2006,09,08,04,44,1.60
2006,09,08,04,45,1.60
2006,09,08,04,46,1.60
2006,09,08,04,47,1.60
2006,09,08,04,48,3.20
2006,09,08,04,49,4.80
2006,09,08,04,50,1.60
2006,09,08,04,51,3.20
2006,09,08,04,52,1.60
2006,09,08,04,53,1.60
2006,09,08,04,54,3.20
2006,09,08,04,55,3.20
2006,09,08,04,56,1.60
2006,09,08,04,57,3.20
2006,09,08,04,58,1.60
2006,09,08,04,59,1.60
2006,09,08,05,00,1.60
2006,09,08,05,01,1.60
2006,09,08,05,02,3.20
2006,09,08,05,03,3.20
2006,09,08,05,04,1.60
2006,09,08,05,05,4.80
2006,09,08,05,06,6.40
2006,09,08,05,07,4.80
2006,09,08,05,08,1.60
2006,09,08,05,09,1.60
2006,09,08,05,10,0.00
2006,09,08,05,11,1.60
2006,09,08,05,12,1.60
2006,09,08,05,13,1.60
2006,09,08,05,14,1.60
2006,09,08,05,15,3.20
2006,09,08,05,16,1.60
2006,09,08,05,17,1.60
2006,09,08,05,18,0.00
2006,09,08,05,19,3.20
2006,09,08,05,20,1.60
2006,09,08,05,21,3.20
2006,09,08,05,22,4.80
2006,09,08,05,23,6.40
2006,09,08,05,24,0.00
2006,09,08,05,25,0.00
2006,09,08,05,26,0.00
2006,09,08,05,27,0.00
2006,09,08,05,28,0.00
2006,09,08,05,29,1.60
2006,09,08,05,30,0.00
2006,09,08,05,31,0.00
2006,09,08,05,32,0.00
2006,09,08,05,33,1.60
2006,09,08,05,34,1.60
2006,09,08,05,35,0.00
2006,09,08,05,36,0.00
2006,09,08,05,37,1.60
2006,09,08,05,38,1.60
2006,09,08,05,39,1.60
2006,09,08,05,40,1.60
2006,09,08,05,41,0.00
2006,09,08,05,42,0.00
2006,09,08,05,43,0.00
2006,09,08,05,44,0.00
2006,09,08,05,45,0.00
2006,09,08,05,46,0.00
2006,09,08,05,47,1.60
2006,09,08,05,48,1.60
2006,09,08,05,49,0.00
2006,09,08,05,50,1.60
2006,09,08,05,51,0.00
2006,09,08,05,52,0.00
2006,09,08,05,53,0.00
2006,09,08,05,54,0.00
2006,09,08,05,55,0.00
2006,09,08,05,56,0.00
2006,09,08,05,57,0.00
2006,09,08,05,58,0.00
2006,09,08,05,59,0.00
2006,09,08,06,00,0.00
2006,09,08,06,01,0.00
2006,09,08,06,02,1.60
2006,09,08,06,03,0.00
2006,09,08,06,04,0.00
2006,09,08,06,05,0.00
2006,09,08,06,06,0.00
2006,09,08,06,07,0.00
2006,09,08,06,08,3.20
2006,09,08,06,09,3.20
2006,09,08,06,10,3.20
2006,09,08,06,11,4.80
2006,09,08,06,12,3.20
2006,09,08,06,13,3.20
2006,09,08,06,14,3.20
2006,09,08,06,15,4.80
2006,09,08,06,16,1.60
2006,09,08,06,17,1.60
2006,09,08,06,18,3.20
2006,09,08,06,19,4.80
2006,09,08,06,20,4.80
2006,09,08,06,21,3.20
2006,09,08,06,22,4.80
2006,09,08,06,23,4.80
2006,09,08,06,24,6.40
2006,09,08,06,25,4.80
2006,09,08,06,26,4.80
2006,09,08,06,27,6.40
2006,09,08,06,28,3.20
2006,09,08,06,29,4.80
2006,09,08,06,30,4.80
2006,09,08,06,31,3.20
2006,09,08,06,32,4.80
2006,09,08,06,33,4.80
2006,09,08,06,34,3.20
2006,09,08,06,35,3.20
2006,09,08,06,36,4.80
2006,09,08,06,37,3.20
2006,09,08,06,38,1.60
2006,09,08,06,39,3.20
2006,09,08,06,40,3.20
2006,09,08,06,41,3.20
2006,09,08,06,42,1.60
2006,09,08,06,43,1.60
2006,09,08,06,44,1.60
2006,09,08,06,45,1.60
2006,09,08,06,46,1.60
2006,09,08,06,47,3.20
2006,09,08,06,48,4.80
2006,09,08,06,49,3.20
2006,09,08,06,50,3.20
2006,09,08,06,51,1.60
2006,09,08,06,52,3.20
2006,09,08,06,53,3.20
2006,09,08,06,54,1.60
2006,09,08,06,55,4.80
2006,09,08,06,56,4.80
2006,09,08,06,57,3.20
2006,09,08,06,58,4.80
2006,09,08,06,59,4.80
2006,09,08,07,00,4.80
2006,09,08,07,01,6.40
2006,09,08,07,02,3.20
2006,09,08,07,03,4.80
2006,09,08,07,04,3.20
2006,09,08,07,05,6.40
2006,09,08,07,06,4.80
2006,09,08,07,07,3.20
2006,09,08,07,08,4.80
2006,09,08,07,09,3.20
2006,09,08,07,10,3.20
2006,09,08,07,11,4.80
2006,09,08,07,12,4.80
2006,09,08,07,13,4.80
2006,09,08,07,14,3.20
2006,09,08,07,15,3.20
2006,09,08,07,16,4.80
2006,09,08,07,17,6.40
2006,09,08,07,18,3.20
2006,09,08,07,19,1.60
2006,09,08,07,20,1.60
2006,09,08,07,21,3.20
2006,09,08,07,22,4.80
2006,09,08,07,23,3.20
2006,09,08,07,24,1.60
2006,09,08,07,25,1.60
2006,09,08,07,26,1.60
2006,09,08,07,27,1.60
2006,09,08,07,28,4.80
2006,09,08,07,29,1.60
2006,09,08,07,30,1.60
2006,09,08,07,31,1.60
2006,09,08,07,32,1.60
2006,09,08,07,33,0.00
2006,09,08,07,34,1.60
2006,09,08,07,35,1.60
2006,09,08,07,36,0.00
2006,09,08,07,37,3.20
2006,09,08,07,38,3.20
2006,09,08,07,39,1.60
2006,09,08,07,40,1.60
2006,09,08,07,41,1.60
2006,09,08,07,42,3.20
2006,09,08,07,43,3.20
2006,09,08,07,44,1.60
2006,09,08,07,45,4.80
2006,09,08,07,46,3.20
2006,09,08,07,47,3.20
2006,09,08,07,48,4.80
2006,09,08,07,49,3.20
2006,09,08,07,50,0.00
2006,09,08,07,51,0.00
2006,09,08,07,52,1.60
2006,09,08,07,53,1.60
2006,09,08,07,54,1.60
2006,09,08,07,55,3.20
2006,09,08,07,56,3.20
2006,09,08,07,57,4.80
2006,09,08,07,58,1.60
2006,09,08,07,59,1.60
2006,09,08,08,00,3.20
2006,09,08,08,01,3.20
2006,09,08,08,02,1.60
2006,09,08,08,03,1.60
2006,09,08,08,04,3.20
2006,09,08,08,05,1.60
2006,09,08,08,06,1.60
2006,09,08,08,07,4.80
2006,09,08,08,08,1.60
2006,09,08,08,09,1.60
2006,09,08,08,10,1.60
2006,09,08,08,11,1.60
2006,09,08,08,12,3.20
2006,09,08,08,13,4.80
2006,09,08,08,14,4.80
2006,09,08,08,15,1.60
2006,09,08,08,16,3.20
2006,09,08,08,17,3.20
2006,09,08,08,18,3.20
2006,09,08,08,19,4.80
2006,09,08,08,20,3.20
2006,09,08,08,21,1.60
2006,09,08,08,22,1.60
2006,09,08,08,23,1.60
2006,09,08,08,24,1.60
2006,09,08,08,25,1.60
2006,09,08,08,26,3.20
2006,09,08,08,27,1.60
2006,09,08,08,28,3.20
2006,09,08,08,29,4.80
2006,09,08,08,30,8.10
2006,09,08,08,31,8.10
2006,09,08,08,32,4.80
2006,09,08,08,33,8.10
2006,09,08,08,34,4.80
2006,09,08,08,35,8.10
2006,09,08,08,36,6.40
2006,09,08,08,37,6.40
2006,09,08,08,38,6.40
2006,09,08,08,39,4.80
2006,09,08,08,40,4.80
2006,09,08,08,41,3.20
2006,09,08,08,42,4.80
2006,09,08,08,43,4.80
2006,09,08,08,44,4.80
2006,09,08,08,45,4.80
2006,09,08,08,46,4.80
2006,09,08,08,47,6.40
2006,09,08,08,48,6.40
2006,09,08,08,49,8.10
2006,09,08,08,50,8.10
2006,09,08,08,51,6.40
2006,09,08,08,52,4.80
2006,09,08,08,53,8.10
2006,09,08,08,54,4.80
2006,09,08,08,55,3.20
2006,09,08,08,56,6.40
2006,09,08,08,57,6.40
2006,09,08,08,58,4.80
2006,09,08,08,59,6.40
2006,09,08,09,00,4.80
2006,09,08,09,01,6.40
2006,09,08,09,02,6.40
2006,09,08,09,03,4.80
2006,09,08,09,04,3.20
2006,09,08,09,05,6.40
2006,09,08,09,06,3.20
2006,09,08,09,07,8.10
2006,09,08,09,08,6.40
2006,09,08,09,09,6.40
2006,09,08,09,10,6.40
2006,09,08,09,11,4.80
2006,09,08,09,12,6.40
2006,09,08,09,13,4.80
2006,09,08,09,14,3.20
2006,09,08,09,15,3.20
2006,09,08,09,16,3.20
2006,09,08,09,17,1.60
2006,09,08,09,18,1.60
2006,09,08,09,19,1.60
2006,09,08,09,20,3.20
2006,09,08,09,21,6.40
2006,09,08,09,22,4.80
2006,09,08,09,23,3.20
2006,09,08,09,24,4.80
2006,09,08,09,25,4.80
2006,09,08,09,26,1.60
2006,09,08,09,27,0.00
2006,09,08,09,28,4.80
2006,09,08,09,29,4.80
2006,09,08,09,30,4.80
2006,09,08,09,31,6.40
2006,09,08,09,32,6.40
2006,09,08,09,33,9.60
2006,09,08,09,34,8.10
2006,09,08,09,35,4.80
2006,09,08,09,36,3.20
2006,09,08,09,37,1.60
2006,09,08,09,38,3.20
2006,09,08,09,39,8.10
2006,09,08,09,40,3.20
2006,09,08,09,41,3.20
2006,09,08,09,42,4.80
2006,09,08,09,43,6.40
2006,09,08,09,44,6.40
2006,09,08,09,45,6.40
2006,09,08,09,46,4.80
2006,09,08,09,47,4.80
2006,09,08,09,48,6.40
2006,09,08,09,49,3.20
2006,09,08,09,50,3.20
2006,09,08,09,51,4.80
2006,09,08,09,52,3.20
2006,09,08,09,53,4.80
2006,09,08,09,54,6.40
2006,09,08,09,55,8.10
2006,09,08,09,56,3.20
2006,09,08,09,57,1.60
2006,09,08,09,58,1.60
2006,09,08,09,59,3.20
2006,09,08,10,00,8.10
2006,09,08,10,01,9.60
2006,09,08,10,02,6.40
2006,09,08,10,03,4.80
2006,09,08,10,04,3.20
2006,09,08,10,05,3.20
2006,09,08,10,06,6.40
2006,09,08,10,07,4.80
2006,09,08,10,08,3.20
2006,09,08,10,09,3.20
2006,09,08,10,10,3.20
2006,09,08,10,11,3.20
2006,09,08,10,12,8.10
2006,09,08,10,13,9.60
2006,09,08,10,14,4.80
2006,09,08,10,15,6.40
2006,09,08,10,16,8.10
2006,09,08,10,17,6.40
2006,09,08,10,18,6.40
2006,09,08,10,19,6.40
2006,09,08,10,20,4.80
2006,09,08,10,21,3.20
2006,09,08,10,22,4.80
2006,09,08,10,23,6.40
2006,09,08,10,24,3.20
2006,09,08,10,25,9.60
2006,09,08,10,26,11.30
2006,09,08,10,27,3.20
2006,09,08,10,28,3.20
2006,09,08,10,29,3.20
2006,09,08,10,30,8.10
2006,09,08,10,31,6.40
2006,09,08,10,32,6.40
2006,09,08,10,33,6.40
2006,09,08,10,34,4.80
2006,09,08,10,35,6.40
2006,09,08,10,36,8.10
2006,09,08,10,37,6.40
2006,09,08,10,38,6.40
2006,09,08,10,39,4.80
2006,09,08,10,40,4.80
2006,09,08,10,41,4.80
2006,09,08,10,42,9.60
2006,09,08,10,43,8.10
2006,09,08,10,44,8.10
2006,09,08,10,45,6.40
2006,09,08,10,46,6.40
2006,09,08,10,47,4.80
2006,09,08,10,48,4.80
2006,09,08,10,49,6.40
2006,09,08,10,50,6.40
2006,09,08,10,51,4.80
2006,09,08,10,52,4.80
2006,09,08,10,53,4.80
2006,09,08,10,54,4.80
2006,09,08,10,55,1.60
2006,09,08,10,56,4.80
2006,09,08,10,57,6.40
2006,09,08,10,58,8.10
2006,09,08,10,59,6.40
2006,09,08,11,00,6.40
2006,09,08,11,01,4.80
2006,09,08,11,02,4.80
2006,09,08,11,03,4.80
2006,09,08,11,04,4.80
2006,09,08,11,05,4.80
2006,09,08,11,06,9.60
2006,09,08,11,07,9.60
2006,09,08,11,08,6.40
2006,09,08,11,09,3.20
2006,09,08,11,10,8.10
2006,09,08,11,11,6.40
2006,09,08,11,12,4.80
2006,09,08,11,13,8.10
2006,09,08,11,14,8.10
2006,09,08,11,15,8.10
2006,09,08,11,16,4.80
2006,09,08,11,17,6.40
2006,09,08,11,18,9.60
2006,09,08,11,19,8.10
2006,09,08,11,20,8.10
2006,09,08,11,21,6.40
2006,09,08,11,22,9.60
2006,09,08,11,23,8.10
2006,09,08,11,24,11.30
2006,09,08,11,25,4.80
2006,09,08,11,26,6.40
2006,09,08,11,27,8.10
2006,09,08,11,28,6.40
2006,09,08,11,29,3.20
2006,09,08,11,30,6.40
2006,09,08,11,31,8.10
2006,09,08,11,32,6.40
2006,09,08,11,33,8.10
2006,09,08,11,34,6.40
2006,09,08,11,35,9.60
2006,09,08,11,36,8.10
2006,09,08,11,37,8.10
2006,09,08,11,38,4.80
2006,09,08,11,39,9.60
2006,09,08,11,40,17.70
2006,09,08,11,41,9.60
2006,09,08,11,42,6.40
2006,09,08,11,43,6.40
2006,09,08,11,44,6.40
2006,09,08,11,45,8.10
2006,09,08,11,46,9.60
2006,09,08,11,47,6.40
2006,09,08,11,48,6.40
2006,09,08,11,49,8.10
2006,09,08,11,50,6.40
2006,09,08,11,51,6.40
2006,09,08,11,52,6.40
2006,09,08,11,53,6.40
2006,09,08,11,54,9.60
2006,09,08,11,55,4.80
2006,09,08,11,56,4.80
2006,09,08,11,57,6.40
2006,09,08,11,58,9.60
2006,09,08,11,59,12.90
2006,09,08,12,00,8.10
2006,09,08,12,01,11.30
2006,09,08,12,02,9.60
2006,09,08,12,03,9.60
2006,09,08,12,04,8.10
2006,09,08,12,05,6.40
2006,09,08,12,06,9.60
2006,09,08,12,07,8.10
2006,09,08,12,08,8.10
2006,09,08,12,09,6.40
2006,09,08,12,10,9.60
2006,09,08,12,11,8.10
2006,09,08,12,12,9.60
2006,09,08,12,13,9.60
2006,09,08,12,14,9.60
2006,09,08,12,15,6.40
2006,09,08,12,16,11.30
2006,09,08,12,17,8.10
2006,09,08,12,18,8.10
2006,09,08,12,19,3.20
2006,09,08,12,20,6.40
2006,09,08,12,21,6.40
2006,09,08,12,22,8.10
2006,09,08,12,23,9.60
2006,09,08,12,24,9.60
2006,09,08,12,25,8.10
2006,09,08,12,26,9.60
2006,09,08,12,27,9.60
2006,09,08,12,28,4.80
2006,09,08,12,29,6.40
2006,09,08,12,30,4.80
2006,09,08,12,31,6.40
2006,09,08,12,32,4.80
2006,09,08,12,33,9.60
2006,09,08,12,34,8.10
2006,09,08,12,35,8.10
2006,09,08,12,36,6.40
2006,09,08,12,37,8.10
2006,09,08,12,38,9.60
2006,09,08,12,39,9.60
2006,09,08,12,40,4.80
2006,09,08,12,41,6.40
2006,09,08,12,42,3.20
2006,09,08,12,43,3.20
2006,09,08,12,44,6.40
2006,09,08,12,45,8.10
2006,09,08,12,46,9.60
2006,09,08,12,47,6.40
2006,09,08,12,48,6.40
2006,09,08,12,49,9.60
2006,09,08,12,50,8.10
2006,09,08,12,51,8.10
2006,09,08,12,52,8.10
2006,09,08,12,53,9.60
2006,09,08,12,54,6.40
2006,09,08,12,55,4.80
2006,09,08,12,56,6.40
2006,09,08,12,57,6.40
2006,09,08,12,58,9.60
2006,09,08,12,59,8.10
2006,09,08,13,00,6.40
2006,09,08,13,01,11.30
2006,09,08,13,02,14.50
2006,09,08,13,03,12.90
2006,09,08,13,04,8.10
2006,09,08,13,05,9.60
2006,09,08,13,06,8.10
2006,09,08,13,07,8.10
2006,09,08,13,08,6.40
2006,09,08,13,09,8.10
2006,09,08,13,10,9.60
2006,09,08,13,11,8.10
2006,09,08,13,12,11.30
2006,09,08,13,13,11.30
2006,09,08,13,14,9.60
2006,09,08,13,15,11.30
2006,09,08,13,16,11.30
2006,09,08,13,17,4.80
2006,09,08,13,18,6.40
2006,09,08,13,19,12.90
2006,09,08,13,20,11.30
2006,09,08,13,21,14.50
2006,09,08,13,22,12.90
2006,09,08,13,23,9.60
2006,09,08,13,24,4.80
2006,09,08,13,25,4.80
2006,09,08,13,26,9.60
2006,09,08,13,27,4.80
2006,09,08,13,28,8.10
2006,09,08,13,29,8.10
2006,09,08,13,30,6.40
2006,09,08,13,31,6.40
2006,09,08,13,32,6.40
2006,09,08,13,33,8.10
2006,09,08,13,34,6.40
2006,09,08,13,35,6.40
2006,09,08,13,36,11.30
2006,09,08,13,37,9.60
2006,09,08,13,38,6.40
2006,09,08,13,39,8.10
2006,09,08,13,40,4.80
2006,09,08,13,41,8.10
2006,09,08,13,42,6.40
2006,09,08,13,43,9.60
2006,09,08,13,44,14.50
2006,09,08,13,45,8.10
2006,09,08,13,46,11.30
2006,09,08,13,47,8.10
2006,09,08,13,48,16.10
2006,09,08,13,49,12.90
2006,09,08,13,50,6.40
2006,09,08,13,51,4.80
2006,09,08,13,52,6.40
2006,09,08,13,53,8.10
2006,09,08,13,54,6.40
2006,09,08,13,55,9.60
2006,09,08,13,56,9.60
2006,09,08,13,57,8.10
2006,09,08,13,58,11.30
2006,09,08,13,59,14.50
2006,09,08,14,00,9.60
2006,09,08,14,01,8.10
2006,09,08,14,02,8.10
2006,09,08,14,03,4.80
2006,09,08,14,04,11.30
2006,09,08,14,05,8.10
2006,09,08,14,06,9.60
2006,09,08,14,07,9.60
2006,09,08,14,08,8.10
2006,09,08,14,09,6.40
2006,09,08,14,10,6.40
2006,09,08,14,11,6.40
2006,09,08,14,12,12.90
2006,09,08,14,13,11.30
2006,09,08,14,14,6.40
2006,09,08,14,15,8.10
2006,09,08,14,16,14.50
2006,09,08,14,17,11.30
2006,09,08,14,18,11.30
2006,09,08,14,19,9.60
2006,09,08,14,20,14.50
2006,09,08,14,21,12.90
2006,09,08,14,22,16.10
2006,09,08,14,23,14.50
2006,09,08,14,24,9.60
2006,09,08,14,25,16.10
2006,09,08,14,26,6.40
2006,09,08,14,27,17.70
2006,09,08,14,28,11.30
2006,09,08,14,29,3.20
2006,09,08,14,30,6.40
2006,09,08,14,31,8.10
2006,09,08,14,32,6.40
2006,09,08,14,33,8.10
2006,09,08,14,34,8.10
2006,09,08,14,35,8.10
2006,09,08,14,36,17.70
2006,09,08,14,37,9.60
2006,09,08,14,38,14.50
2006,09,08,14,39,11.30
2006,09,08,14,40,14.50
2006,09,08,14,41,8.10
2006,09,08,14,42,6.40
2006,09,08,14,43,14.50
2006,09,08,14,44,8.10
2006,09,08,14,45,8.10
2006,09,08,14,46,6.40
2006,09,08,14,47,8.10
2006,09,08,14,48,9.60
2006,09,08,14,49,4.80
2006,09,08,14,50,8.10
2006,09,08,14,51,9.60
2006,09,08,14,52,14.50
2006,09,08,14,53,6.40
2006,09,08,14,54,9.60
2006,09,08,14,55,4.80
2006,09,08,14,56,4.80
2006,09,08,14,57,14.50
2006,09,08,14,58,14.50
2006,09,08,14,59,4.80
2006,09,08,15,00,11.30
2006,09,08,15,01,11.30
2006,09,08,15,02,14.50
2006,09,08,15,03,8.10
2006,09,08,15,04,11.30
2006,09,08,15,05,11.30
2006,09,08,15,06,9.60
2006,09,08,15,07,11.30
2006,09,08,15,08,11.30
2006,09,08,15,09,11.30
2006,09,08,15,10,4.80
2006,09,08,15,11,11.30
2006,09,08,15,12,8.10
2006,09,08,15,13,11.30
2006,09,08,15,14,9.60
2006,09,08,15,15,11.30
2006,09,08,15,16,8.10
2006,09,08,15,17,11.30
2006,09,08,15,18,6.40
2006,09,08,15,19,8.10
2006,09,08,15,20,9.60
2006,09,08,15,21,8.10
2006,09,08,15,22,11.30
2006,09,08,15,23,6.40
2006,09,08,15,24,8.10
2006,09,08,15,25,9.60
2006,09,08,15,26,11.30
2006,09,08,15,27,6.40
2006,09,08,15,28,9.60
2006,09,08,15,29,11.30
2006,09,08,15,30,6.40
2006,09,08,15,31,6.40
2006,09,08,15,32,9.60
2006,09,08,15,33,8.10
2006,09,08,15,34,8.10
2006,09,08,15,35,9.60
2006,09,08,15,36,4.80
2006,09,08,15,37,4.80
2006,09,08,15,38,3.20
2006,09,08,15,39,6.40
2006,09,08,15,40,4.80
2006,09,08,15,41,11.30
2006,09,08,15,42,9.60
2006,09,08,15,43,9.60
2006,09,08,15,44,11.30
2006,09,08,15,45,9.60
2006,09,08,15,46,9.60
2006,09,08,15,47,8.10
2006,09,08,15,48,12.90
2006,09,08,15,49,9.60
2006,09,08,15,50,9.60
2006,09,08,15,51,8.10
2006,09,08,15,52,6.40
2006,09,08,15,53,6.40
2006,09,08,15,54,6.40
2006,09,08,15,55,4.80
2006,09,08,15,56,0.00
2006,09,08,15,57,4.80
2006,09,08,15,58,11.30
2006,09,08,15,59,9.60
2006,09,08,16,00,4.80
2006,09,08,16,01,8.10
2006,09,08,16,02,8.10
2006,09,08,16,03,4.80
2006,09,08,16,04,4.80
2006,09,08,16,05,6.40
2006,09,08,16,06,6.40
2006,09,08,16,07,1.60
2006,09,08,16,08,6.40
2006,09,08,16,09,8.10
2006,09,08,16,10,8.10
2006,09,08,16,11,8.10
2006,09,08,16,12,4.80
2006,09,08,16,13,4.80
2006,09,08,16,14,3.20
2006,09,08,16,15,1.60
2006,09,08,16,16,3.20
2006,09,08,16,17,3.20
2006,09,08,16,18,6.40
2006,09,08,16,19,4.80
2006,09,08,16,20,4.80
2006,09,08,16,21,6.40
2006,09,08,16,22,3.20
2006,09,08,16,23,3.20
2006,09,08,16,24,8.10
2006,09,08,16,25,6.40
2006,09,08,16,26,4.80
2006,09,08,16,27,4.80
2006,09,08,16,28,3.20
2006,09,08,16,29,4.80
2006,09,08,16,30,4.80
2006,09,08,16,31,3.20
2006,09,08,16,32,4.80
2006,09,08,16,33,6.40
2006,09,08,16,34,4.80
2006,09,08,16,35,3.20
2006,09,08,16,36,6.40
2006,09,08,16,37,4.80
2006,09,08,16,38,4.80
2006,09,08,16,39,3.20
2006,09,08,16,40,3.20
2006,09,08,16,41,6.40
2006,09,08,16,42,6.40
2006,09,08,16,43,4.80
2006,09,08,16,44,4.80
2006,09,08,16,45,6.40
2006,09,08,16,46,4.80
2006,09,08,16,47,6.40
2006,09,08,16,48,6.40
2006,09,08,16,49,6.40
2006,09,08,16,50,6.40
2006,09,08,16,51,6.40
2006,09,08,16,52,6.40
2006,09,08,16,53,4.80
2006,09,08,16,54,4.80
2006,09,08,16,55,1.60
2006,09,08,16,56,6.40
2006,09,08,16,57,4.80
2006,09,08,16,58,4.80
2006,09,08,16,59,4.80
2006,09,08,17,00,1.60
2006,09,08,17,01,3.20
2006,09,08,17,02,3.20
2006,09,08,17,03,4.80
2006,09,08,17,04,4.80
2006,09,08,17,05,4.80
2006,09,08,17,06,3.20
2006,09,08,17,07,4.80
2006,09,08,17,08,6.40
2006,09,08,17,09,6.40
2006,09,08,17,10,4.80
2006,09,08,17,11,4.80
2006,09,08,17,12,6.40
2006,09,08,17,13,4.80
2006,09,08,17,14,4.80
2006,09,08,17,15,4.80
2006,09,08,17,16,3.20
2006,09,08,17,17,4.80
2006,09,08,17,18,6.40
2006,09,08,17,19,3.20
2006,09,08,17,20,1.60
2006,09,08,17,21,3.20
2006,09,08,17,22,8.10
2006,09,08,17,23,9.60
2006,09,08,17,24,9.60
2006,09,08,17,25,3.20
2006,09,08,17,26,1.60
2006,09,08,17,27,6.40
2006,09,08,17,28,3.20
2006,09,08,17,29,6.40
2006,09,08,17,30,9.60
2006,09,08,17,31,6.40
2006,09,08,17,32,11.30
2006,09,08,17,33,11.30
2006,09,08,17,34,8.10
2006,09,08,17,35,3.20
2006,09,08,17,36,9.60
2006,09,08,17,37,8.10
2006,09,08,17,38,14.50
2006,09,08,17,39,11.30
2006,09,08,17,40,12.90
2006,09,08,17,41,9.60
2006,09,08,17,42,6.40
2006,09,08,17,43,6.40
2006,09,08,17,44,17.70
2006,09,08,17,45,17.70
2006,09,08,17,46,22.50
2006,09,08,17,47,17.70
2006,09,08,17,48,20.90
2006,09,08,17,49,17.70
2006,09,08,17,50,20.90
2006,09,08,17,51,11.30
2006,09,08,17,52,12.90
2006,09,08,17,53,17.70
2006,09,08,17,54,16.10
2006,09,08,17,55,16.10
2006,09,08,17,56,11.30
2006,09,08,17,57,16.10
2006,09,08,17,58,12.90
2006,09,08,17,59,11.30
2006,09,08,18,00,14.50
2006,09,08,18,01,16.10
2006,09,08,18,02,8.10